User: anonymous   Login
Location: ??????
(38.0677°N, 22.9870°E)
Time: 15:54:20
(UTC+00:00)
Language:

NOAA 11 - Orbit

View from above orbital plane
View from above orbital plane
View from above satellite
View from above satellite

Ground track
Ground track

The orbit data is extracted from the following two-line orbital elements,

1 19531U 88089A   24207.38607449  .00000193  00000-0  11966-3 0  9997
2 19531  98.5204 168.2719 0012045 121.6735 238.5616 14.15556107849849
Epoch (UTC): 25 July 2024 09:15:56
Eccentricity: 0.0012045
inclination: 98.5204°
perigee height: 832 km
apogee height: 849 km
right ascension of ascending node: 168.2719°
argument of perigee: 121.6735°
revolutions per day: 14.15556107
mean anomaly at epoch: 238.5616°
orbit number at epoch: 84984

The dashed part of the orbit path shows where the satellite is in the earth's shadow,  

DLR